Flag for U.S.A. Weather past 2 weeks in Allentown, Pennsylvania, U.S.A.

Now
81 °F

Scattered clouds.


Feels Like: 81 °F
Forecast: 64 / 79 °F
Wind: 9 mph from North

Location: Lehigh Valley International Airport

Current Time: Jul 24, 2014 at 4:12:38 PM

Latest Report: Jul 24, 2014 at 3:51 PM


Visibility: 10 mi

Pressure: 29.87 "Hg

Humidity: 39%

Dew point: 54 °F

Location of AllentownLocation

Historic Weather in Allentown — Graph

°F

Allentown temperature yesterday

Maximum temperature yesterday: 91 °F (at 3:51 PM)
Minimum temperature yesterday: 69 °F (at 5:51 AM)
Average temperature yesterday: 78 °F

Past Weeks' High & Low Weather Summary

 TemperatureHumidityPressure
High91 °F (Jul 23, 3:51 PM)97% (Jul 11, 4:51 AM)30.25 "Hg (Jul 11, 4:51 AM)
Low56 °F (Jul 18, 5:51 AM)36% (Jul 17, 4:51 PM)29.72 "Hg (Jul 15, 4:51 PM)
Average74 °F70%30.03 "Hg
* Reported Jul 9 2:51 PM — Jul 24 2:51 PM, Allentown, Weather by CustomWeather, © 2014

Note: Actual official high and low records may vary slightly from our data, if they occured in-between our weather recording intervals... More about our weather records

Advertising

Allentown weather history for previous 24 hours

 ConditionsComfort  
Time TempWeatherWind HumidityBarometerVisibility
2:51 PM
Jul 24
81 °FScattered clouds.8 mph38%29.88 "Hg10 mi
1:51 PM79 °FScattered clouds.10 mph44%29.88 "Hg10 mi
12:51 PM78 °FPartly sunny.13 mph46%29.90 "Hg10 mi
11:51 AM77 °FPassing clouds.10 mph48%29.90 "Hg10 mi
10:51 AM74 °FSunny.16 mph57%29.91 "Hg10 mi
9:51 AM71 °FSunny.9 mph63%29.89 "Hg10 mi
8:51 AM71 °FSunny.9 mph66%29.89 "Hg10 mi
7:51 AM69 °FSunny.7 mph73%29.89 "Hg10 mi
6:51 AM68 °FOvercast.9 mph76%29.88 "Hg10 mi
5:51 AM68 °FPassing clouds.5 mph78%29.88 "Hg10 mi
4:51 AM68 °FPassing clouds.6 mph82%29.86 "Hg10 mi
3:51 AM69 °FOvercast.5 mph81%29.85 "Hg10 mi
2:51 AM68 °FPassing clouds.3 mph87%29.85 "Hg10 mi
1:51 AM69 °FClear.5 mph84%29.85 "Hg10 mi
12:51 AM69 °FClear.No wind87%29.86 "Hg10 mi
11:51 PM
Jul 23
71 °FFog.5 mph90%29.85 "Hg6 mi
11:00 PM72 °FFog.No wind94%29.86 "Hg2 mi
9:51 PM73 °FThunderstorms. Fog.No wind90%29.86 "Hg6 mi
8:51 PM75 °FThunderstorms. Broken clouds.7 mph85%29.86 "Hg10 mi
7:51 PM74 °FSunny.5 mph88%29.83 "Hg7 mi
7:02 PM73 °FLight rain. Broken clouds.6 mph89%29.83 "Hg9 mi
6:00 PM82 °FThunderstorms. Broken clouds.21 mph58%29.83 "Hg10 mi
4:51 PM88 °FScattered clouds.9 mph54%29.80 "Hg10 mi
Weather by CustomWeather, © 2014

See weather overviewHow to use our weather pages